TimeEST,TemperatureF,Dew PointF,Humidity,Sea Level PressureIn,VisibilityMPH,Wind Direction,Wind SpeedMPH,Gust SpeedMPH,PrecipitationIn,Events,Conditions,WindDirDegrees,DateUTC
12:15 AM,37.4,23.0,56,30.02,10.0,SSW,12.7,24.2,N/A,,Clear,210,2013-01-19 05:15:00
12:35 AM,37.4,23.0,56,30.03,10.0,SW,16.1,24.2,N/A,,Clear,220,2013-01-19 05:35:00
12:55 AM,37.4,23.0,56,30.02,10.0,SW,12.7,20.7,N/A,,Clear,220,2013-01-19 05:55:00
1:15 AM,37.4,23.0,56,30.02,10.0,SW,12.7,21.9,N/A,,Clear,220,2013-01-19 06:15:00
1:35 AM,37.4,23.0,56,30.01,10.0,SW,11.5,19.6,N/A,,Clear,220,2013-01-19 06:35:00
1:55 AM,37.4,23.0,56,30.01,10.0,SW,11.5,23.0,N/A,,Clear,220,2013-01-19 06:55:00
2:15 AM,37.4,23.0,56,30.01,10.0,SSW,12.7,20.7,N/A,,Clear,210,2013-01-19 07:15:00
2:35 AM,37.4,23.0,56,30.01,10.0,SW,11.5,18.4,N/A,,Clear,220,2013-01-19 07:35:00
2:55 AM,37.4,23.0,56,30.01,10.0,SSW,10.4,18.4,N/A,,Clear,210,2013-01-19 07:55:00
3:15 AM,37.4,23.0,56,30.01,10.0,SW,12.7,19.6,N/A,,Clear,220,2013-01-19 08:15:00
3:35 AM,37.4,24.8,60,30.01,10.0,SW,10.4,19.6,N/A,,Clear,220,2013-01-19 08:35:00
3:55 AM,37.4,24.8,60,30.01,10.0,SW,12.7,21.9,N/A,,Clear,220,2013-01-19 08:55:00
4:15 AM,37.4,24.8,60,30.00,10.0,SW,10.4,18.4,N/A,,Clear,220,2013-01-19 09:15:00
4:35 AM,37.4,24.8,60,30.00,10.0,SW,12.7,19.6,N/A,,Clear,220,2013-01-19 09:35:00
4:55 AM,37.4,24.8,60,29.99,10.0,SW,11.5,21.9,N/A,,Clear,220,2013-01-19 09:55:00
5:15 AM,37.4,24.8,60,29.99,10.0,SW,10.4,18.4,N/A,,Clear,220,2013-01-19 10:15:00
5:35 AM,37.4,26.6,65,30.00,10.0,SW,10.4,19.6,N/A,,Clear,220,2013-01-19 10:35:00
5:55 AM,35.6,26.6,70,30.00,10.0,SW,9.2,-,N/A,,Clear,220,2013-01-19 10:55:00
6:15 AM,37.4,26.6,65,30.00,10.0,SW,9.2,17.3,N/A,,Clear,220,2013-01-19 11:15:00
6:35 AM,35.6,26.6,70,30.00,10.0,SW,8.1,-,N/A,,Clear,230,2013-01-19 11:35:00
6:55 AM,35.6,26.6,70,30.00,10.0,SW,8.1,-,N/A,,Clear,220,2013-01-19 11:55:00
8:15 AM,35.6,26.6,70,29.99,10.0,SW,8.1,-,N/A,,Clear,220,2013-01-19 13:15:00
8:55 AM,37.4,26.6,65,29.99,10.0,SW,8.1,-,N/A,,Clear,220,2013-01-19 13:55:00
9:35 AM,39.2,26.6,61,29.99,10.0,SW,13.8,18.4,N/A,,Clear,220,2013-01-19 14:35:00
10:35 AM,42.8,28.4,57,29.98,10.0,SW,13.8,23.0,N/A,,Clear,220,2013-01-19 15:35:00
10:55 AM,42.8,28.4,57,29.98,10.0,SW,13.8,23.0,N/A,,Clear,220,2013-01-19 15:55:00
11:15 AM,42.8,28.4,57,29.97,10.0,SSW,12.7,25.3,N/A,,Clear,210,2013-01-19 16:15:00
11:35 AM,44.6,28.4,53,29.96,10.0,SW,12.7,24.2,N/A,,Clear,220,2013-01-19 16:35:00
12:15 PM,44.6,28.4,53,29.92,10.0,SW,15.0,26.5,N/A,,Clear,230,2013-01-19 17:15:00
12:35 PM,46.4,28.4,50,29.91,10.0,SW,15.0,24.2,N/A,,Clear,220,2013-01-19 17:35:00
12:55 PM,46.4,30.2,53,29.89,10.0,SSW,11.5,27.6,N/A,,Clear,210,2013-01-19 17:55:00
1:15 PM,46.4,30.2,53,29.88,10.0,SSW,19.6,25.3,N/A,,Clear,210,2013-01-19 18:15:00
1:35 PM,48.2,30.2,50,29.86,10.0,SSW,12.7,24.2,N/A,,Clear,210,2013-01-19 18:35:00
1:55 PM,48.2,30.2,50,29.85,10.0,SW,17.3,25.3,N/A,,Clear,220,2013-01-19 18:55:00
2:15 PM,48.2,30.2,50,29.84,10.0,SW,15.0,27.6,N/A,,Clear,220,2013-01-19 19:15:00
2:35 PM,48.2,30.2,50,29.84,10.0,SW,19.6,29.9,N/A,,Clear,230,2013-01-19 19:35:00
2:55 PM,46.4,30.2,53,29.83,10.0,SW,17.3,26.5,N/A,,Clear,220,2013-01-19 19:55:00
3:35 PM,48.2,30.2,50,29.81,10.0,SW,15.0,25.3,N/A,,Clear,220,2013-01-19 20:35:00
3:55 PM,48.2,30.2,50,29.80,10.0,SW,15.0,25.3,N/A,,Clear,220,2013-01-19 20:55:00
4:15 PM,46.4,30.2,53,29.80,10.0,SW,13.8,24.2,N/A,,Clear,220,2013-01-19 21:15:00
4:35 PM,46.4,32.0,57,29.79,10.0,SW,16.1,23.0,N/A,,Scattered Clouds,220,2013-01-19 21:35:00
4:55 PM,46.4,32.0,57,29.80,10.0,SW,13.8,20.7,N/A,,Mostly Cloudy,230,2013-01-19 21:55:00
5:15 PM,46.4,32.0,57,29.80,10.0,SW,12.7,25.3,N/A,,Overcast,220,2013-01-19 22:15:00
5:35 PM,46.4,32.0,57,29.80,10.0,SSW,11.5,17.3,N/A,,Mostly Cloudy,210,2013-01-19 22:35:00
5:55 PM,46.4,32.0,57,29.79,10.0,SSW,12.7,18.4,N/A,,Clear,210,2013-01-19 22:55:00
6:15 PM,44.6,32.0,61,29.78,10.0,SW,9.2,21.9,N/A,,Scattered Clouds,220,2013-01-19 23:15:00
6:35 PM,44.6,32.0,61,29.79,10.0,SW,11.5,16.1,N/A,,Mostly Cloudy,220,2013-01-19 23:35:00
6:55 PM,44.6,32.0,61,29.78,10.0,SW,10.4,18.4,N/A,,Scattered Clouds,220,2013-01-19 23:55:00
7:15 PM,44.6,32.0,61,29.79,10.0,SW,9.2,18.4,N/A,,Clear,220,2013-01-20 00:15:00
7:35 PM,42.8,32.0,66,29.78,10.0,SW,8.1,16.1,N/A,,Clear,220,2013-01-20 00:35:00
7:55 PM,42.8,32.0,66,29.78,10.0,SW,11.5,17.3,N/A,,Clear,220,2013-01-20 00:55:00
8:15 PM,42.8,32.0,66,29.78,10.0,SW,10.4,20.7,N/A,,Clear,220,2013-01-20 01:15:00
8:35 PM,42.8,32.0,66,29.77,10.0,SW,11.5,16.1,N/A,,Clear,230,2013-01-20 01:35:00
9:15 PM,42.8,32.0,66,29.75,10.0,SW,13.8,29.9,N/A,,Clear,230,2013-01-20 02:15:00
9:55 PM,41.0,32.0,70,29.75,10.0,SW,12.7,21.9,N/A,,Clear,230,2013-01-20 02:55:00
10:15 PM,41.0,32.0,70,29.74,10.0,SW,11.5,17.3,N/A,,Clear,230,2013-01-20 03:15:00
10:35 PM,42.8,32.0,66,29.74,10.0,SW,10.4,18.4,N/A,,Clear,230,2013-01-20 03:35:00
10:55 PM,42.8,32.0,66,29.74,10.0,SW,12.7,21.9,N/A,,Clear,230,2013-01-20 03:55:00
11:15 PM,42.8,32.0,66,29.73,10.0,SW,12.7,23.0,N/A,,Clear,230,2013-01-20 04:15:00
11:35 PM,42.8,32.0,66,29.74,10.0,WSW,12.7,19.6,N/A,,Clear,240,2013-01-20 04:35:00
11:55 PM,42.8,32.0,66,29.74,10.0,WSW,17.3,24.2,N/A,,Clear,240,2013-01-20 04:55:00